User: anonymous   Login
Location: Lamoine Observatory
(44.4551°N, 68.3470°W)
Time: 08:54:38
(UTC-05:00)
Language:

Cosmos 1674 Rocket - Orbit

View from above orbital plane
View from above orbital plane
View from above satellite
View from above satellite

Ground track
Ground track

The orbit data is extracted from the following two-line orbital elements,

1 15945U 85069B   15058.91021801  .00000521  00000-0  60085-4 0  9994
2 15945 082.5284 199.8096 0020153 170.8237 189.3351 14.83610979596420
Epoch (UTC): 27 February 2015 21:50:42
Eccentricity: 0.0020153
inclination: 82.5284°
perigee height: 604 km
apogee height: 632 km
right ascension of ascending node: 199.8096°
argument of perigee: 170.8237°
revolutions per day: 14.83610979
mean anomaly at epoch: 189.3351°
orbit number at epoch: 59642

The dashed part of the orbit path shows where the satellite is in the earth's shadow,  

DLR